Погода в Дуброве

Россия / Пермский край     56°59′54″N   54°32′59″E
темп.,
°C
ветер,
м/с
пор.,
м/с
влажн.,
%
обл.,
%
осадки,
мм/ч
давл.,
гПа
погр.,
м
8 мая, сб
сб823:00+13ю237098 0.0 101644
02:00+11ю227880 0.0 101634
05:00+10ююз227887 0.0 101728
08:00+13ю1269100 0.0 1017168
11:00+17ююз2352100 0.0 1017828
14:00+19ю3441100 0.0 10162154
17:00+17сз3457100 0.1 1017299
20:00+15всв237091 0.1 1017110
9 мая, вс
вс923:00+11ююв11805 0.1 101710
02:00+10ююв11815 0.0 101710
05:00+9ююв22845 0.0 101712
08:00+13юв35720 0.0 1017216
11:00+18ююв46502 0.0 10171173
14:00+21ююв5639100 0.0 10162288
17:00+22ююв553614 0.0 10162312
20:00+18юв37546 0.0 1016151
10 мая, пн
пн1023:00+14ююв226027 0.0 101715
02:00+13юв3459100 0.0 101750
05:00+14юв385984 0.0 1018144
08:00+14ююз2765100 0.0 1020263
11:00+18ю4750100 0.0 1020510
14:00+22ююз4540100 0.0 10202598
17:00+14ссз3589100 1.3 1022196
20:00+12сз4790100 3.1 1025537
11 мая, вт
вт1123:00+10ссз489290 3.4 1026547
02:00+9с498695 0.0 1027542
05:00+5с411893 0.0 1029372
08:00+7с511711 0.0 1030649
11:00+12ссв68480 0.0 10311260
14:00+15с464122 0.0 10301460
17:00+16с453899 0.0 10291598
20:00+14с225262 0.0 103027
12 мая, ср
ср1223:00+10сз115973 0.0 103010
02:00+9зсз2268100 0.0 103111
05:00+10з2269100 0.0 103046
08:00+11з3870100 0.0 1030265
11:00+17зсз575992 0.0 1028735
14:00+21сз575099 0.0 10271716
17:00+22сз5645100 0.0 10262084
20:00+19зсз365913 0.0 1026147